星链-30876 (STARLINK-30876 )

导读 | 豆包AI

**STARLINK-30876卫星摘要** STARLINK-30876是美国SpaceX星链计划的第二代低轨通信卫星,于2023年11月22日发射。属于星链v2.0 mini平台,运行在近地轨道,配备增强型相控阵天线和激光星间链路,支持高速低延迟宽带通信,为全球提供互联网接入服务。卫星采用氪离子推进,具备自主避碰能力,退役后会在大气层中完全销毁,减少空间碎片影响。作为大规模星座组网的一员,助力实现全球无缝网络覆盖,特别是偏远地区连接。

基本信息
目录编号:
58404
目录名称:
STARLINK-30876
国际标识:
2023-180C
轨道中心:
EARTH
卫星名称:
星链-30876
卫星全名:
星链-30876 (STARLINK-30876 )
卫星状态:
在轨 (已飞行890 天)
发射日期:
2023-11-22 UTC
国别 :
美国 (US)
星等 :
--
轨道信息
数据来源 国际轨道数据
星历时间: 2026-04-29T15:14:49+0800
1天前
查看轨道信息
半长轴: 6861.225km
偏心率: 0.0001231
轨道倾角: 43.001°
近地点辐角 269.808°
升交点赤经 126.965°
平近点角 90.264°
近地点: 482.243km
远地点: 483.933km
周期: 94.268分钟
每日圈数: 15.275672
详细信息
固有亮度:
5
最大亮度:
0.3
卫星平台:
Starlink v2.0 mini
覆盖范围:
全球
运营商:
太空探索技术公司
运营商所在国:
美国
制造商(研发单位):
太空探索技术公司
制造商所在国:
美国
使用方式:
暂无
卫星简介
星链(Starlink)计划是由太空探索技术公司(SpaceX)提出的一个巨型低轨卫星互联网星座项目,计划在2019年至2024年间在太空搭建由约1.2万颗卫星组成的“星链”网络,其中1584颗将部署在地球上空550千米处的近地轨道,并从2020年开始工作。该卫星仍在工作。
2D轨道图
3D轨道图
轨道高度分析图
轨道倾角分析图
轨道综合分析图
查看轨道综合分析图